When you browse on this site, cookies collect data to enhance your experience and personalize the content and advertising you see.
Visit our Privacy Policy to learn more. By continuing to use the site, you agree to this use of cookies and data.
  • In Netherlands
  • List of Countries
  • For 7 days
  • Water Temperature
  • Satellite Maps
  • Weather Map
  • Weather Widgets
  • user-avatar
    Login

    Hourly Weather Melbourne

    Today, 17 January, Thursday

    Time Temperature Precipitation Wind Pressure Humidity
    00:00 +28°C° 0 mm 1 mps 755 mmHg 44%
    01:00 +28°C° 0 mm 1 mps 755 mmHg 43%
    02:00 +28°C° 0 mm 1 mps 755 mmHg 42%
    03:00 +28°C° 0 mm 1 mps 755 mmHg 41%
    04:00 +29°C° 0 mm 1 mps 754 mmHg 34%
    05:00 +29°C° 0.2 mm 1 mps 754 mmHg 37%
    06:00 +29°C° 0.2 mm 1 mps 755 mmHg 41%
    07:00 +29°C° 0.2 mm 2 mps 755 mmHg 44%
    08:00 +29°C° 0.4 mm 3 mps 755 mmHg 48%
    09:00 +29°C° 0.4 mm 4 mps 755 mmHg 52%
    10:00 +29°C° 0.4 mm 4 mps 755 mmHg 56%
    11:00 +29°C° 0.1 mm 4 mps 755 mmHg 56%
    12:00 +30°C° 0.1 mm 4 mps 755 mmHg 56%
    13:00 +30°C° 0.1 mm 4 mps 754 mmHg 56%
    14:00 +34°C° 0 mm 4 mps 754 mmHg 45%
    15:00 +37°C° 0 mm 3 mps 754 mmHg 33%
    16:00 +42°C° 0 mm 3 mps 753 mmHg 22%
    17:00 +38°C° 0 mm 3 mps 753 mmHg 28%
    18:00 +35°C° 0 mm 3 mps 754 mmHg 35%
    19:00 +33°C° 0 mm 4 mps 754 mmHg 41%
    20:00 +30°C° 0.1 mm 3 mps 754 mmHg 48%
    21:00 +28°C° 0.1 mm 3 mps 755 mmHg 55%
    22:00 +26°C° 0.1 mm 2 mps 756 mmHg 62%
    23:00 +25°C° 0.3 mm 2 mps 755 mmHg 65%

    Tomorrow, 18 January, Friday

    Time Temperature Precipitation Wind Pressure Humidity
    00:00 +25°C° 0.3 mm 1 mps 755 mmHg 67%
    01:00 +25°C° 0.3 mm 1 mps 754 mmHg 69%
    02:00 +24°C° 0.5 mm 1 mps 754 mmHg 71%
    03:00 +24°C° 0.5 mm 1 mps 754 mmHg 72%
    04:00 +24°C° 0.5 mm 1 mps 754 mmHg 73%
    05:00 +25°C° 0.2 mm 2 mps 754 mmHg 72%
    06:00 +25°C° 0.2 mm 2 mps 754 mmHg 72%
    07:00 +26°C° 0.2 mm 2 mps 754 mmHg 71%
    08:00 +27°C° 0 mm 2 mps 754 mmHg 64%
    09:00 +29°C° 0 mm 2 mps 753 mmHg 57%
    10:00 +31°C° 0 mm 1 mps 753 mmHg 51%
    11:00 +31°C° 0 mm 2 mps 753 mmHg 52%
    12:00 +30°C° 0 mm 3 mps 754 mmHg 54%
    13:00 +30°C° 0 mm 4 mps 754 mmHg 55%
    14:00 +30°C° 0 mm 4 mps 754 mmHg 57%
    15:00 +29°C° 0 mm 3 mps 754 mmHg 58%
    16:00 +29°C° 0 mm 3 mps 755 mmHg 60%
    17:00 +27°C° 0.1 mm 4 mps 755 mmHg 66%
    18:00 +25°C° 0.1 mm 5 mps 756 mmHg 72%
    19:00 +22°C° 0.1 mm 5 mps 756 mmHg 79%
    20:00 +21°C° 0 mm 5 mps 757 mmHg 76%
    21:00 +21°C° 0 mm 4 mps 758 mmHg 72%
    22:00 +20°C° 0 mm 4 mps 759 mmHg 69%
    23:00 +20°C° 0 mm 3 mps 760 mmHg 70%

    Day after tomorrow, 19 January, Saturday

    Time Temperature Precipitation Wind Pressure Humidity
    00:00 +19°C° 0 mm 2 mps 760 mmHg 71%
    01:00 +19°C° 0 mm 2 mps 760 mmHg 72%
    02:00 +19°C° 0 mm 2 mps 761 mmHg 74%
    03:00 +19°C° 0 mm 3 mps 761 mmHg 76%
    04:00 +18°C° 0 mm 4 mps 761 mmHg 78%
    05:00 +18°C° 0 mm 4 mps 762 mmHg 75%
    06:00 +18°C° 0 mm 4 mps 762 mmHg 72%
    07:00 +18°C° 0 mm 3 mps 763 mmHg 69%
    08:00 +20°C° 0 mm 3 mps 763 mmHg 62%
    09:00 +21°C° 0 mm 4 mps 763 mmHg 55%
    10:00 +22°C° 0 mm 4 mps 763 mmHg 49%
    11:00 +23°C° 0 mm 4 mps 763 mmHg 45%
    12:00 +25°C° 0 mm 5 mps 763 mmHg 42%
    13:00 +26°C° 0 mm 5 mps 763 mmHg 38%
    14:00 +26°C° 0 mm 5 mps 763 mmHg 38%
    15:00 +25°C° 0 mm 5 mps 763 mmHg 38%
    16:00 +25°C° 0 mm 5 mps 762 mmHg 38%
    17:00 +23°C° 0 mm 5 mps 763 mmHg 43%
    18:00 +22°C° 0 mm 5 mps 763 mmHg 48%
    19:00 +21°C° 0 mm 5 mps 764 mmHg 53%
    20:00 +20°C° 0 mm 4 mps 764 mmHg 58%
    21:00 +19°C° 0 mm 4 mps 764 mmHg 64%
    22:00 +18°C° 0 mm 3 mps 765 mmHg 69%
    23:00 +17°C° 0 mm 3 mps 765 mmHg 71%

    20 January, Sunday

    Time Temperature Precipitation Wind Pressure Humidity
    00:00 +17°C° 0 mm 2 mps 764 mmHg 74%
    01:00 +17°C° 0 mm 2 mps 764 mmHg 76%
    02:00 +16°C° 0 mm 2 mps 764 mmHg 78%
    03:00 +16°C° 0 mm 2 mps 764 mmHg 79%
    04:00 +16°C° 0 mm 2 mps 764 mmHg 81%
    05:00 +16°C° 0 mm 2 mps 764 mmHg 77%
    06:00 +17°C° 0 mm 2 mps 764 mmHg 74%
    07:00 +17°C° 0 mm 2 mps 765 mmHg 71%
    08:00 +20°C° 0 mm 2 mps 764 mmHg 62%
    09:00 +23°C° 0 mm 2 mps 764 mmHg 53%
    10:00 +25°C° 0 mm 2 mps 764 mmHg 44%
    11:00 +26°C° 0 mm 3 mps 764 mmHg 40%
    12:00 +28°C° 0 mm 3 mps 763 mmHg 37%
    13:00 +30°C° 0 mm 3 mps 762 mmHg 33%
    14:00 +30°C° 0 mm 4 mps 762 mmHg 36%
    15:00 +29°C° 0 mm 5 mps 762 mmHg 40%
    16:00 +29°C° 0 mm 5 mps 761 mmHg 43%
    17:00 +28°C° 0 mm 5 mps 762 mmHg 48%
    18:00 +26°C° 0 mm 4 mps 762 mmHg 53%
    19:00 +25°C° 0 mm 4 mps 762 mmHg 58%
    20:00 +24°C° 0 mm 3 mps 762 mmHg 63%
    21:00 +21°C° 0 mm 3 mps 763 mmHg 68%
    22:00 +20°C° 0 mm 3 mps 763 mmHg 74%
    23:00 +20°C° 0 mm 3 mps 762 mmHg 77%

    21 January, Monday

    Time Temperature Precipitation Wind Pressure Humidity
    00:00 +19°C° 0 mm 2 mps 762 mmHg 80%
    01:00 +19°C° 0 mm 2 mps 761 mmHg 83%
    02:00 +18°C° 0 mm 2 mps 761 mmHg 85%
    03:00 +18°C° 0 mm 2 mps 761 mmHg 87%
    04:00 +17°C° 0 mm 2 mps 760 mmHg 88%
    05:00 +19°C° 0 mm 1 mps 760 mmHg 84%
    06:00 +20°C° 0 mm 1 mps 760 mmHg 80%
    07:00 +20°C° 0 mm 1 mps 761 mmHg 76%
    08:00 +23°C° 0 mm 1 mps 760 mmHg 65%
    09:00 +25°C° 0 mm 1 mps 760 mmHg 54%
    10:00 +28°C° 0 mm 1 mps 760 mmHg 44%
    11:00 +30°C° 0 mm 2 mps 759 mmHg 40%
    12:00 +32°C° 0 mm 2 mps 759 mmHg 35%
    13:00 +35°C° 0 mm 2 mps 758 mmHg 31%
    14:00 +35°C° 0 mm 3 mps 757 mmHg 32%
    15:00 +34°C° 0 mm 4 mps 757 mmHg 33%
    16:00 +34°C° 0 mm 5 mps 757 mmHg 34%
    17:00 +32°C° 0 mm 4 mps 757 mmHg 39%
    18:00 +29°C° 0 mm 4 mps 757 mmHg 45%
    19:00 +27°C° 0 mm 3 mps 757 mmHg 50%
    20:00 +26°C° 0 mm 3 mps 758 mmHg 54%
    21:00 +25°C° 0 mm 2 mps 758 mmHg 59%
    22:00 +23°C° 0 mm 1 mps 758 mmHg 63%
    23:00 +23°C° 0 mm 1 mps 758 mmHg 64%

    22 January, Tuesday

    Time Temperature Precipitation Wind Pressure Humidity
    00:00 +23°C° 0 mm 1 mps 757 mmHg 66%
    01:00 +22°C° 0 mm 1 mps 757 mmHg 67%
    02:00 +22°C° 0 mm 1 mps 757 mmHg 67%
    03:00 +22°C° 0 mm 1 mps 756 mmHg 67%
    04:00 +22°C° 0 mm 1 mps 756 mmHg 67%
    05:00 +24°C° 0 mm 1 mps 756 mmHg 66%
    06:00 +25°C° 0 mm 1 mps 756 mmHg 64%
    07:00 +27°C° 0 mm 2 mps 756 mmHg 63%
    08:00 +30°C° 0 mm 2 mps 756 mmHg 53%
    09:00 +34°C° 0 mm 2 mps 756 mmHg 42%
    10:00 +38°C° 0 mm 2 mps 756 mmHg 32%
    11:00 +39°C° 0 mm 3 mps 755 mmHg 27%
    12:00 +42°C° 0 mm 3 mps 754 mmHg 22%
    13:00 +43°C° 0 mm 3 mps 754 mmHg 17%
    14:00 +43°C° 0 mm 3 mps 753 mmHg 17%
    15:00 +44°C° 0 mm 4 mps 753 mmHg 17%
    16:00 +44°C° 0 mm 4 mps 752 mmHg 17%
    17:00 +40°C° 0 mm 4 mps 752 mmHg 24%
    18:00 +35°C° 0 mm 5 mps 753 mmHg 32%
    19:00 +30°C° 0 mm 5 mps 753 mmHg 39%
    20:00 +29°C° 0 mm 4 mps 753 mmHg 44%
    21:00 +28°C° 0 mm 3 mps 754 mmHg 48%
    22:00 +26°C° 0 mm 2 mps 754 mmHg 52%
    23:00 +26°C° 0 mm 2 mps 754 mmHg 55%
    Show more